When you browse on this site, cookies collect data to enhance your experience and personalize the content and advertising you see.
Visit our Privacy Policy to learn more. By continuing to use the site, you agree to this use of cookies and data.
  • In Schweiz
  • Länderverzeichnis
  • Für 7 Tage
  • Wassertemperatur
  • Wetterkarte
  • Widgets
  • user-avatar
    Anmelden

    Stündliche Wetter Tatabánya

    Heute, 29 März, Sonntag

    Zeit Temperatur Niederschläge Wind Luftdruck Luftfeuchtigkeit
    00:00 +9°C° 0 mm 1 m/S 738 mmHg 72%
    01:00 +7°C° 0 mm 2 m/S 738 mmHg 73%
    02:00 +7°C° 0 mm 2 m/S 737 mmHg 74%
    03:00 +6°C° 0 mm 2 m/S 737 mmHg 76%
    04:00 +6°C° 0 mm 2 m/S 737 mmHg 78%
    05:00 +6°C° 0 mm 2 m/S 737 mmHg 77%
    06:00 +5°C° 0 mm 3 m/S 737 mmHg 77%
    07:00 +7°C° 0 mm 3 m/S 737 mmHg 77%
    08:00 +7°C° 0 mm 4 m/S 737 mmHg 72%
    09:00 +9°C° 0 mm 5 m/S 738 mmHg 67%
    10:00 +12°C° 0 mm 5 m/S 738 mmHg 62%
    11:00 +13°C° 0 mm 6 m/S 738 mmHg 58%
    12:00 +13°C° 0 mm 6 m/S 737 mmHg 54%
    13:00 +14°C° 0 mm 6 m/S 737 mmHg 50%
    14:00 +14°C° 0 mm 6 m/S 737 mmHg 52%
    15:00 +14°C° 0 mm 7 m/S 737 mmHg 54%
    16:00 +12°C° 0 mm 7 m/S 737 mmHg 56%
    17:00 +11°C° 0 mm 6 m/S 737 mmHg 60%
    18:00 +9°C° 0 mm 6 m/S 737 mmHg 64%
    19:00 +8°C° 0 mm 5 m/S 738 mmHg 68%
    20:00 +7°C° 0 mm 5 m/S 738 mmHg 70%
    21:00 +6°C° 0 mm 5 m/S 738 mmHg 72%
    22:00 +5°C° 0 mm 5 m/S 739 mmHg 74%
    23:00 +5°C° 0 mm 5 m/S 739 mmHg 74%

    Morgen, 30 März, Montag

    Zeit Temperatur Niederschläge Wind Luftdruck Luftfeuchtigkeit
    00:00 +3°C° 0 mm 6 m/S 739 mmHg 74%
    01:00 +3°C° 0 mm 6 m/S 739 mmHg 74%
    02:00 +3°C° 0 mm 6 m/S 740 mmHg 72%
    03:00 +2°C° 0 mm 6 m/S 740 mmHg 71%
    04:00 +2°C° 0 mm 6 m/S 740 mmHg 69%
    05:00 +1°C° 0 mm 6 m/S 740 mmHg 67%
    06:00 0°C° 0 mm 7 m/S 741 mmHg 66%
    07:00 -1°C° 0 mm 7 m/S 741 mmHg 65%
    08:00 0°C° 0 mm 7 m/S 741 mmHg 62%
    09:00 +2°C° 0 mm 7 m/S 742 mmHg 58%
    10:00 +2°C° 0 mm 7 m/S 742 mmHg 55%
    11:00 +3°C° 0 mm 7 m/S 742 mmHg 52%
    12:00 +4°C° 0 mm 6 m/S 743 mmHg 50%
    13:00 +4°C° 0 mm 6 m/S 743 mmHg 47%
    14:00 +4°C° 0 mm 6 m/S 742 mmHg 45%
    15:00 +4°C° 0 mm 6 m/S 742 mmHg 44%
    16:00 +4°C° 0 mm 7 m/S 742 mmHg 42%
    17:00 +3°C° 0 mm 6 m/S 743 mmHg 44%
    18:00 +2°C° 0 mm 6 m/S 743 mmHg 45%
    19:00 +1°C° 0 mm 5 m/S 743 mmHg 47%
    20:00 0°C° 0 mm 5 m/S 744 mmHg 53%
    21:00 0°C° 0 mm 4 m/S 744 mmHg 60%
    22:00 0°C° 0 mm 3 m/S 745 mmHg 66%
    23:00 +1°C° 0.1 mm 2 m/S 745 mmHg 70%

    übermorgen, 31 März, Dienstag

    Zeit Temperatur Niederschläge Wind Luftdruck Luftfeuchtigkeit
    00:00 -1°C° 0.1 mm 2 m/S 745 mmHg 73%
    01:00 +1°C° 0.1 mm 1 m/S 745 mmHg 76%
    02:00 +1°C° 0 mm 1 m/S 745 mmHg 75%
    03:00 +1°C° 0 mm 1 m/S 745 mmHg 73%
    04:00 -1°C° 0 mm 2 m/S 745 mmHg 72%
    05:00 -1°C° 0 mm 2 m/S 746 mmHg 72%
    06:00 -1°C° 0 mm 2 m/S 746 mmHg 72%
    07:00 -1°C° 0 mm 2 m/S 746 mmHg 72%
    08:00 +1°C° 0 mm 2 m/S 746 mmHg 62%
    09:00 +2°C° 0 mm 2 m/S 746 mmHg 52%
    10:00 +4°C° 0 mm 2 m/S 746 mmHg 41%
    11:00 +4°C° 0 mm 2 m/S 746 mmHg 38%
    12:00 +4°C° 0 mm 3 m/S 746 mmHg 35%
    13:00 +5°C° 0 mm 3 m/S 746 mmHg 32%
    14:00 +5°C° 0 mm 3 m/S 745 mmHg 32%
    15:00 +5°C° 0 mm 3 m/S 745 mmHg 32%
    16:00 +5°C° 0 mm 3 m/S 745 mmHg 32%
    17:00 +4°C° 0 mm 3 m/S 745 mmHg 38%
    18:00 +4°C° 0 mm 2 m/S 745 mmHg 44%
    19:00 +3°C° 0 mm 2 m/S 745 mmHg 50%
    20:00 +2°C° 0 mm 2 m/S 746 mmHg 54%
    21:00 +2°C° 0 mm 2 m/S 746 mmHg 57%
    22:00 +1°C° 0 mm 2 m/S 746 mmHg 61%
    23:00 +1°C° 0 mm 2 m/S 746 mmHg 62%

    1 April, Mittwoch

    Zeit Temperatur Niederschläge Wind Luftdruck Luftfeuchtigkeit
    00:00 +1°C° 0 mm 2 m/S 746 mmHg 63%
    01:00 -1°C° 0 mm 2 m/S 746 mmHg 64%
    02:00 +1°C° 0 mm 1 m/S 745 mmHg 65%
    03:00 0°C° 0 mm 1 m/S 745 mmHg 67%
    04:00 0°C° 0 mm 1 m/S 745 mmHg 68%
    05:00 0°C° 0 mm 1 m/S 745 mmHg 64%
    06:00 +1°C° 0 mm 1 m/S 745 mmHg 60%
    07:00 +2°C° 0 mm 1 m/S 745 mmHg 57%
    08:00 +2°C° 0 mm 2 m/S 744 mmHg 50%
    09:00 +3°C° 0 mm 3 m/S 744 mmHg 44%
    10:00 +4°C° 0 mm 4 m/S 744 mmHg 38%
    11:00 +5°C° 0 mm 4 m/S 743 mmHg 37%
    12:00 +5°C° 0 mm 4 m/S 743 mmHg 35%
    13:00 +6°C° 0 mm 4 m/S 743 mmHg 33%
    14:00 +7°C° 0 mm 3 m/S 742 mmHg 34%
    15:00 +7°C° 0 mm 3 m/S 742 mmHg 35%
    16:00 +7°C° 0 mm 3 m/S 741 mmHg 37%
    17:00 +6°C° 0 mm 2 m/S 741 mmHg 42%
    18:00 +5°C° 0 mm 1 m/S 741 mmHg 46%
    19:00 +4°C° 0 mm 1 m/S 741 mmHg 51%
    20:00 +4°C° 0 mm 1 m/S 741 mmHg 52%
    21:00 +3°C° 0 mm 1 m/S 741 mmHg 54%
    22:00 +3°C° 0 mm 1 m/S 741 mmHg 55%
    23:00 +2°C° 0 mm 1 m/S 741 mmHg 56%

    2 April, Donnerstag

    Zeit Temperatur Niederschläge Wind Luftdruck Luftfeuchtigkeit
    00:00 +2°C° 0 mm 1 m/S 741 mmHg 57%
    01:00 +1°C° 0 mm 2 m/S 741 mmHg 58%
    02:00 -1°C° 0 mm 2 m/S 741 mmHg 58%
    03:00 -1°C° 0 mm 2 m/S 741 mmHg 58%
    04:00 -1°C° 0 mm 2 m/S 740 mmHg 58%
    05:00 +1°C° 0 mm 2 m/S 740 mmHg 56%
    06:00 +1°C° 0 mm 2 m/S 741 mmHg 54%
    07:00 +2°C° 0 mm 2 m/S 741 mmHg 52%
    08:00 +4°C° 0 mm 2 m/S 741 mmHg 49%
    09:00 +6°C° 0 mm 2 m/S 740 mmHg 47%
    10:00 +8°C° 0 mm 2 m/S 740 mmHg 44%
    11:00 +9°C° 0 mm 3 m/S 740 mmHg 42%
    12:00 +9°C° 0 mm 3 m/S 740 mmHg 40%
    13:00 +10°C° 0 mm 3 m/S 740 mmHg 38%
    14:00 +10°C° 0 mm 3 m/S 739 mmHg 39%
    15:00 +11°C° 0 mm 3 m/S 739 mmHg 39%
    16:00 +11°C° 0 mm 3 m/S 739 mmHg 39%
    17:00 +9°C° 0 mm 2 m/S 739 mmHg 44%
    18:00 +8°C° 0 mm 1 m/S 739 mmHg 50%
    19:00 +7°C° 0 mm 1 m/S 738 mmHg 55%
    20:00 +5°C° 0 mm 0 m/S 739 mmHg 56%
    21:00 +5°C° 0 mm 0 m/S 739 mmHg 57%
    22:00 +4°C° 0 mm 0 m/S 739 mmHg 59%
    23:00 +4°C° 0 mm 0 m/S 739 mmHg 60%

    3 April, Freitag

    Zeit Temperatur Niederschläge Wind Luftdruck Luftfeuchtigkeit
    00:00 +5°C° 0 mm 1 m/S 739 mmHg 61%
    01:00 +4°C° 0 mm 1 m/S 740 mmHg 62%
    02:00 +4°C° 0 mm 1 m/S 739 mmHg 64%
    03:00 +3°C° 0 mm 1 m/S 739 mmHg 66%
    04:00 +3°C° 0 mm 1 m/S 739 mmHg 68%
    05:00 +4°C° 0 mm 1 m/S 739 mmHg 66%
    06:00 +5°C° 0 mm 1 m/S 739 mmHg 65%
    07:00 +5°C° 0 mm 1 m/S 739 mmHg 63%
    08:00 +7°C° 0 mm 1 m/S 739 mmHg 58%
    09:00 +9°C° 0 mm 1 m/S 739 mmHg 52%
    10:00 +10°C° 0 mm 2 m/S 739 mmHg 46%
    11:00 +12°C° 0 mm 2 m/S 739 mmHg 44%
    12:00 +12°C° 0 mm 3 m/S 738 mmHg 42%
    13:00 +12°C° 0 mm 4 m/S 738 mmHg 40%
    14:00 +12°C° 0 mm 3 m/S 737 mmHg 40%
    15:00 +12°C° 0 mm 3 m/S 737 mmHg 40%
    16:00 +12°C° 0 mm 3 m/S 737 mmHg 40%
    17:00 +11°C° 0 mm 3 m/S 737 mmHg 45%
    18:00 +9°C° 0 mm 2 m/S 737 mmHg 50%
    19:00 +8°C° 0 mm 2 m/S 737 mmHg 55%
    20:00 +7°C° 0 mm 2 m/S 737 mmHg 57%
    21:00 +7°C° 0 mm 2 m/S 737 mmHg 58%
    22:00 +7°C° 0 mm 1 m/S 738 mmHg 59%
    23:00 +7°C° 0 mm 1 m/S 738 mmHg 60%
    Mehr zeigen